Terminal Aerodrome Forecast
Issued by NWS Lake Charles, LA

Home | Current Version | Previous Version | Text Only | Print | Product List | Glossary On
Versions: 1 2 3 4 5 6 7 8 9 10 11 12 13 14
000
FTUS44 KLCH 282300
TAFLFT
TAF
KLFT 282332Z 2900/2924 18005KT P6SM SKC
      TEMPO 2900/2902 4SM FU
     FM290900 VRB03KT P6SM SCT035
     FM291600 19010G15KT P6SM BKN035=

USA.gov is the U.S. government's official web portal to all federal, state and local government web resources and services.